User: anonymous   Login
Location: Houston
(29.7630°N, 95.3630°W)
Time: 13:00:05
(UTC-05:00)
Language:

ISS - Orbit

View from above orbital plane
View from above orbital plane
View from above satellite
View from above satellite

Ground track
Ground track

The orbit data is extracted from the following two-line orbital elements,

1 25544U 98067A   16238.36199437  .00016717  00000-0  10270-3 0  9032
2 25544  51.6427  72.8492 0003042 250.0186 110.0640 15.54306571 15746
Epoch (UTC): 25 August 2016 08:41:16
Eccentricity: 0.0003042
inclination: 51.6427°
perigee height: 402 km
apogee height: 406 km
right ascension of ascending node: 72.8492°
argument of perigee: 250.0186°
revolutions per day: 15.54306571
mean anomaly at epoch: 110.0640°
orbit number at epoch: 1574

The dashed part of the orbit path shows where the satellite is in the earth's shadow,  

DLR